World > North America > United States > California   City of Oakland, CA

Oakland, California Regional Weather

Lat: 37.77N, Lon: 122.22W
Wx Zone: CAZ508Web Search
Oakland Weather Warning NWS WEATHER ALERT FOR THE OAKLAND, CA AREA - Issued: 737 AM PDT Fri Aug 14 2020 Oakland Weather Warning  

Helpful Tip: Abbreviated, 7 Day, 14 Day Forecasts. There is a weather forecast for every taste.

Feedback

Oakland, CA Regional Weather

Expires:202008141800;;446299
ASUS46 KSTO 141715
RWRCA 

NORTHERN AND CENTRAL CA REGIONAL WEATHER ROUNDUP
NATIONAL WEATHER SERVICE SACRAMENTO CA 
1000 AM PDT FRI AUG 14 2020

NOTE: FAIR INDICATES FEW OR NO CLOUDS BELOW 12,000 FEET WITH NO
SIGNIFICANT WEATHER AND/OR OBSTRUCTIONS TO VISIBILITY.


CAZ006-505>513-141800-
BAY AREA
  
CITY           SKY/WX    TMP DP  RH WIND       PRES   REMARKS
SANTA ROSA     MOSUNNY   78  48  34 CALM      29.92S                  
SAN RAFAEL     N/A       MM  MM  MM MISG
NAPA           MOSUNNY   81  55  40 W3        29.91F                  
CONCORD        MOSUNNY   84  54  35 CALM      29.91S                  
OAKLAND CITY   N/A       74  MM  MM MISG
OAKLAND        PTSUNNY   82  58  43 W6        29.92S                  
SAN FRAN CITY  N/A       77  MM  39 MISG
SAN FRAN ARPT  PTSUNNY   73  61  65 E6        29.91S                  
LIVERMORE      MOSUNNY   84  49  29 SW5       29.91S                  
HAYWARD        PTSUNNY   87  52  29 N3        29.90F                  
SAN JOSE ARPT  PTSUNNY   82  61  48 VRB5      29.91S                  
$$

SKY/WX - Weather  TMP - Temperature  DP - Dew Point  RH - Relative Humidity
WIND - Wind Direction/Speed PRES - Barometric Pressure VSB - Visibility
WCI - Wind Chill Index E13G22 Wind - East Wind 13 mph/Gusts of 22 mph
Oakland Weather Map
UTC Time: 8/14/2020, 17:17
Your Time: